Weather History for Novato, CA

Change the Weather History Date:

Thursday, November 1, 2012

  Actual Average (KAPC) Record (KAPC)
Temperature  
Mean Temperature 57 °F 55 °F  
Max Temperature 68 °F 69 °F 80 °F (1999)
Min Temperature 46 °F 41 °F 31 °F (2003)
Degree Days  
Heating Degree Days 8    
Month to date heating degree days  
Since 1 July heating degree days  
Cooling Degree Days 0    
Month to date cooling degree days  
Year to date cooling degree days  
Growing Degree Days 7 (Base 50)    
Moisture  
Dew Point 54 °F    
Average Humidity 88    
Maximum Humidity 100    
Minimum Humidity 56    
Precipitation  
Precipitation 0.00 in - 1.90 in (2008)
Month to date precipitation  
Year to date precipitation  
Since 1 July precipitation  
Sea Level Pressure  
Sea Level Pressure 30.03 in    
Wind  
Wind Speed 2 mph (NNW)    
Max Wind Speed 10 mph    
Max Gust Speed -    
Visibility 10 miles    
Events Rain    
T = Trace of Precipitation, MM = Missing Value Source: NWS Daily Summary

Daily Weather History Graph

Daily Weather History Graph

Search for Another Location

Airport:

Trip Planner

Search our weather history database for the weather conditions in past years. The results will help you decide how hot, cold, wet, or windy it might be!

Date:

Astronomy

Nov. 01, 2012 Rise Set
Actual Time 7:36 AM PDT 6:10 PM PDT
Civil Twilight 7:09 AM PDT 6:37 PM PDT
Nautical Twilight 6:38 AM PDT 7:08 PM PDT
Astronomical Twilight 6:07 AM PDT 7:39 PM PDT
Moon 8:13 PM PDT (11/1) 10:11 AM PDT (11/1)
Length of Visible Light 11h 28m
Length of Day
10h 33m
Waning Gibbous, 92% of the Moon is Illuminated
Nov 1
Waning Gibbous
Nov 6
Last Quarter
Nov 13
New
Nov 20
First Quarter
Nov 28
Full

Hourly Weather History & Observations

Time (PDT) Temp. Dew Point Humidity Pressure Visibility Wind Dir Wind Speed Gust Speed Precip Events Conditions
12:15 AM 57.2 °F 57.2 °F 100% 30.00 in 10.0 mi Calm Calm - N/A Rain Light Rain
12:35 AM 57.2 °F 57.2 °F 100% 30.00 in 4.0 mi Calm Calm - N/A Rain Light Rain
1:15 AM 57.2 °F 57.2 °F 100% 30.00 in 9.0 mi ESE 3.5 mph - N/A Rain Light Rain
1:35 AM 57.2 °F 57.2 °F 100% 30.00 in 10.0 mi Calm Calm - N/A   Overcast
1:55 AM 57.2 °F 57.2 °F 100% 30.00 in 10.0 mi Calm Calm - N/A   Overcast
2:15 AM 57.2 °F 57.2 °F 100% 30.00 in 10.0 mi SW 3.5 mph - N/A   Mostly Cloudy
2:35 AM 57.2 °F 57.2 °F 100% 30.00 in 10.0 mi ESE 3.5 mph - N/A   Overcast
3:15 AM 57.2 °F 57.2 °F 100% 30.01 in 10.0 mi Calm Calm - N/A   Overcast
3:35 AM 57.2 °F 57.2 °F 100% 30.01 in 10.0 mi Calm Calm - N/A   Mostly Cloudy
3:55 AM 57.2 °F 57.2 °F 100% 30.00 in 10.0 mi NNW 3.5 mph - N/A   Mostly Cloudy
4:15 AM 57.2 °F 57.2 °F 100% 30.00 in 10.0 mi Calm Calm - N/A   Mostly Cloudy
4:35 AM 57.2 °F 57.2 °F 100% 30.00 in 10.0 mi North 3.5 mph - N/A   Mostly Cloudy
4:55 AM 57.2 °F 57.2 °F 100% 30.01 in 10.0 mi Calm Calm - N/A   Mostly Cloudy
5:35 AM 55.4 °F 55.4 °F 100% 30.01 in 3.0 mi Calm Calm - N/A   Clear
6:35 AM 55.4 °F 55.4 °F 100% 30.02 in 3.0 mi Calm Calm - N/A   Scattered Clouds
7:15 AM 53.6 °F 53.6 °F 100% 30.02 in 10.0 mi Calm Calm - N/A   Scattered Clouds
7:35 AM 55.4 °F 55.4 °F 100% 30.02 in 10.0 mi Calm Calm - N/A   Overcast
7:55 AM 53.6 °F 53.6 °F 100% 30.02 in 10.0 mi Calm Calm - N/A   Overcast
8:15 AM 53.6 °F 53.6 °F 100% 30.03 in 3.0 mi Calm Calm - N/A   Mostly Cloudy
8:35 AM 55.4 °F 55.4 °F 100% 30.03 in 10.0 mi Calm Calm - N/A   Clear
9:15 AM 55.4 °F 55.4 °F 100% 30.04 in 10.0 mi Calm Calm - N/A   Clear
9:35 AM 57.2 °F 57.2 °F 100% 30.04 in 10.0 mi Calm Calm - N/A   Clear
9:55 AM 57.2 °F 57.2 °F 100% 30.04 in 10.0 mi NNW 3.5 mph - N/A   Clear
10:15 AM 59.0 °F 59.0 °F 100% 30.04 in 10.0 mi SSW 3.5 mph - N/A   Scattered Clouds
10:35 AM 59.0 °F 59.0 °F 100% 30.05 in 10.0 mi Calm Calm - N/A   Scattered Clouds
11:15 AM 60.8 °F 60.8 °F 100% 30.05 in 10.0 mi North 5.8 mph - N/A   Mostly Cloudy
11:35 AM 62.6 °F 62.6 °F 100% 30.05 in 10.0 mi NNW 4.6 mph - N/A   Partly Cloudy
11:55 AM 62.6 °F 60.8 °F 94% 30.04 in 10.0 mi North 3.5 mph - N/A   Clear
12:15 PM 64.4 °F 60.8 °F 88% 30.05 in 10.0 mi Calm Calm - N/A   Scattered Clouds
12:35 PM 64.4 °F 59.0 °F 83% 30.04 in 10.0 mi ENE 3.5 mph - N/A   Mostly Cloudy
12:55 PM 64.4 °F 59.0 °F 83% 30.04 in 10.0 mi North 4.6 mph - N/A   Mostly Cloudy
1:15 PM 64.4 °F 55.4 °F 73% 30.03 in 10.0 mi Calm Calm - N/A   Mostly Cloudy
1:35 PM 66.2 °F 57.2 °F 73% 30.03 in 10.0 mi West 5.8 mph - N/A   Mostly Cloudy
1:55 PM 68.0 °F 55.4 °F 64% 30.02 in 10.0 mi NW 9.2 mph - N/A   Mostly Cloudy
2:15 PM 66.2 °F 57.2 °F 73% 30.02 in 10.0 mi NNW 9.2 mph - N/A   Mostly Cloudy
2:35 PM 68.0 °F 57.2 °F 68% 30.01 in 10.0 mi NNW 6.9 mph - N/A   Mostly Cloudy
2:55 PM 68.0 °F 55.4 °F 64% 30.01 in 10.0 mi NW 5.8 mph - N/A   Mostly Cloudy
3:15 PM 68.0 °F 53.6 °F 60% 30.01 in 10.0 mi NW 6.9 mph - N/A   Mostly Cloudy
3:35 PM 68.0 °F 55.4 °F 64% 30.02 in 10.0 mi NW 9.2 mph - N/A   Mostly Cloudy
3:55 PM 68.0 °F 53.6 °F 60% 30.02 in 10.0 mi NW 8.1 mph - N/A   Partly Cloudy
4:15 PM 68.0 °F 53.6 °F 60% 30.02 in 10.0 mi NNW 8.1 mph - N/A   Clear
4:35 PM 66.2 °F 50.0 °F 56% 30.02 in 10.0 mi NW 6.9 mph - N/A   Clear
4:55 PM 66.2 °F 50.0 °F 56% 30.02 in 10.0 mi NNW 6.9 mph - N/A   Clear
5:15 PM 64.4 °F 50.0 °F 59% 30.02 in 10.0 mi NW 4.6 mph - N/A   Clear
5:35 PM 64.4 °F 50.0 °F 59% 30.02 in 10.0 mi NNE 4.6 mph - N/A   Clear
5:55 PM 59.0 °F 50.0 °F 72% 30.02 in 10.0 mi Calm Calm - N/A   Clear
6:15 PM 57.2 °F 51.8 °F 82% 30.03 in 10.0 mi North 4.6 mph - N/A   Clear
6:35 PM 57.2 °F 50.0 °F 77% 30.03 in 10.0 mi WNW 4.6 mph - N/A   Clear
6:55 PM 57.2 °F 50.0 °F 77% 30.03 in 10.0 mi Calm Calm - N/A   Clear
7:15 PM 55.4 °F 50.0 °F 82% 30.04 in 10.0 mi NNW 3.5 mph - N/A   Clear
7:35 PM 55.4 °F 48.2 °F 77% 30.04 in 10.0 mi Calm Calm - N/A   Clear
7:55 PM 55.4 °F 50.0 °F 82% 30.05 in 10.0 mi North 10.4 mph - N/A   Clear
8:15 PM 53.6 °F 50.0 °F 88% 30.05 in 10.0 mi North 9.2 mph - N/A   Clear
8:35 PM 53.6 °F 48.2 °F 82% 30.04 in 10.0 mi NW 3.5 mph - N/A   Clear
8:55 PM 53.6 °F 50.0 °F 88% 30.04 in 10.0 mi WNW 3.5 mph - N/A   Clear
9:15 PM 53.6 °F 48.2 °F 82% 30.05 in 10.0 mi West 3.5 mph - N/A   Clear
9:35 PM 50.0 °F 50.0 °F 100% 30.05 in 10.0 mi Calm Calm - N/A   Clear
9:55 PM 50.0 °F 48.2 °F 94% 30.05 in 10.0 mi Calm Calm - N/A   Clear
10:15 PM 46.4 °F 46.4 °F 100% 30.06 in 10.0 mi Calm Calm - N/A   Clear
10:35 PM 48.2 °F 48.2 °F 100% 30.06 in 10.0 mi Calm Calm - N/A   Clear
10:55 PM 48.2 °F 48.2 °F 100% 30.06 in 10.0 mi Calm Calm - N/A   Clear
11:15 PM 48.2 °F 48.2 °F 100% 30.07 in 10.0 mi WNW 3.5 mph - N/A   Clear
11:35 PM 50.0 °F 50.0 °F 100% 30.07 in 10.0 mi Calm Calm - N/A   Clear
11:55 PM 50.0 °F 50.0 °F 100% 30.07 in 10.0 mi NE 8.1 mph - N/A   Clear